Вернуться в каталог

COSMOS 2251 DEB

АктивенLEO
NORAD 40803·DEBRIS·🇷🇺 Russia

Запущен Jun 16, 1993 с Plesetsk Cosmodrome

Loading…

Ближайшие Пролёты (ближайшие 24 часа)

TLE

УстаревшееSource: Space-Track

Эпоха: Sep 4, 2026, 11:49 UTC

1 40803U 93036BWG 26247.49260563  .00000397  00000-0  10384-3 0  9990
2 40803  74.0112 270.4477 0031210  59.0968 301.3255 14.52374042626103

Отслеживайте COSMOS 2251 DEB в реальном времени с AllMySat

Download on the App Store